Regional Weather Roundup
Issued by NWS

Home | Current Version | Previous Version | Text Only | Print | Product List | Glossary On
Versions: 1 2 3 4 5 6 7 8 9 10 11 12 13 14 15 16 17 18 19 20 21 22 23 24 25 26 27 28 29 30 31 32 33 34 35 36 37 38 39 40 41 42 43 44 45 46 47 48 49 50
394
ASUS44 KJAN 230710
RWRMS

MISSISSIPPI HOURLY WEATHER ROUNDUP
NATIONAL WEATHER SERVICE JACKSON MS
200 AM CDT THU OCT 23 2014

NOTE: "FAIR: INDICATES FEW OR NO CLOUDS BELOW 12,000 FEET WITH NO
SIGNIFICANT WEATHER AND/OR OBSTRUCTIONS TO VISIBILITY.

MSZ001>002-007>008-010>013-018>021-025>028-034>036-230800-
NORTHWEST MISSISSIPPI

CITY           SKY/WX    TMP DP  RH WIND       PRES   REMARKS
CLARKSDALE     FAIR      48  46  93 N3        30.18F
CLEVELAND      FAIR      46  45  97 NE5       30.16F
GREENWOOD      CLEAR     43  41  93 NE3       30.16R
GREENVILLE     CLEAR     48  44  86 NE6       30.15F
GRENADA          N/A    N/A N/A N/A MISG        N/A
OLIVE BRANCH   CLEAR     45  45 100 NE3       30.19S
OXFORD           N/A     43  41  93 CALM      30.19S
TUNICA         SUNNY     45  41  87 CALM      30.19F
$$

MSZ003>006-009-014>017-022>024-029>033-037>039-230800-
NORTHEAST MISSISSIPPI

CITY           SKY/WX    TMP DP  RH WIND       PRES   REMARKS
COLUMBUS AFB   CLEAR     41  41 100 NW2       30.14S FOG
CORINTH        FAIR      41  39  93 CALM      30.18R FOG
GOLDN TRIANGLE CLEAR     45  39  81 CALM      30.14S
STARKVILLE     FAIR      43  41  93 NW3       30.14S
TUPELO         CLEAR     44  41  89 N3        30.16R
$$

MSZ040-058-230800-
CENTRAL MISSISSIPPI

CITY           SKY/WX    TMP DP  RH WIND       PRES   REMARKS
JACKSON INTL   CLEAR     47  43  86 CALM      30.13R
JACKSON HAWKNS CLEAR     51  46  83 CALM      30.13R
MERIDIAN KEY   CLEAR     47  43  86 CALM      30.11S
MERIDIAN NAS   CLEAR     45  42  89 N5        30.12R
RAYMOND        FAIR      45  39  81 W3        30.14R
VICKSBURG      CLEAR     44  42  93 CALM      30.14S
$$

MSZ059>079-230800-
SOUTH MISSISSIPPI

CITY           SKY/WX    TMP DP  RH WIND       PRES   REMARKS
BROOKHAVEN     FAIR      48  46  93 CALM      30.14R
COLUMBIA         N/A    N/A N/A N/A MISG        N/A
HATTIESBURG    CLEAR     48  46  93 CALM      30.12R
MCCOMB         CLEAR     52  46  80 N5        30.11R
NATCHEZ        CLEAR     48  45  87 CALM      30.13S
PINE BELT      CLEAR     48  43  81 N3        30.11F
$$

MSZ080>082-230800-
COASTAL MISSISSIPPI

CITY           SKY/WX    TMP DP  RH WIND       PRES   REMARKS
BILOXI         CLEAR     56  47  73 NE5       30.08S
PASCAGOULA     CLEAR     47  45  93 N3        30.07S
GULFPORT       CLEAR     54  46  74 N6        30.08S
$$



USA.gov is the U.S. government's official web portal to all federal, state and local government web resources and services.